Tracking 24122 objects as of 9-Dec-2021
HD Live streaming from Space Station
objects crossing your sky now

OPS 4682 DEB

Track OPS 4682 DEB now!
10-day predictions


NORAD ID: 38385
Int'l Code: 1965-027CN
Perigee: 1,247.6 km
Apogee: 1,322.5 km
Inclination: 90.3 °
Period: 111.1 minutes
Semi major axis: 7656 km
RCS: 0.0101 m2 (small)
Launch date: April 3, 1965
Source: United States (US)
Launch site: AIR FORCE WESTERN TEST RANGE (AFWTR)

Note: This is SATELLITE DEBRIS
aabbcc
Your satellite tracking list
Your tracking list is empty




NASA's NSSDC Master Catalog

Two Line Element Set (TLE):
1 38385U 65027CN  21342.20004902 -.00000224  00000-0 -81045-3 0  9997
2 38385  90.2818 320.1951 0048933  95.0054 265.6654 12.95964866401429
Source of the keplerian elements: AFSPC